[keps] orb08138.amsat
Ray Hoad
r.hoad at att.net
Sat May 17 16:22:08 PDT 2008
SB KEPS @ AMSAT $ORB08138.O
Orbital Elements 08138.OSCAR
HR AMSAT ORBITAL ELEMENTS FOR OSCAR SATELLITES
FROM WA5QGD FORT WORTH,TX May 17, 2008
Send Subscribe/unsubscribe to KEPS at
http://www.amsat.org/mailman/listinfo/keps
BID: ORB08138.O
TO ALL RADIO AMATEURS BT
Satellite: AO-07
Catalog number: 07530
Epoch time: 08138.72770434
Element set: 178
Inclination: 101.4673 deg
RA of node: 171.2413 deg
Eccentricity: 0.0011846
Arg of perigee: 322.6077 deg
Mean anomaly: 037.4164 deg
Mean motion: 12.53573817 rev/day
Decay rate: -2.7e-07 rev/day^2
Epoch rev: 53316
Checksum: 286
Satellite: AO-10
Catalog number: 14129
Epoch time: 08138.15785870
Element set: 507
Inclination: 025.9410 deg
RA of node: 215.0297 deg
Eccentricity: 0.5994868
Arg of perigee: 124.3024 deg
Mean anomaly: 307.4154 deg
Mean motion: 02.05870390 rev/day
Decay rate: -1.83e-06 rev/day^2
Epoch rev: 18746
Checksum: 310
Satellite: UO-11
Catalog number: 14781
Epoch time: 08137.67253729
Element set: 0671
Inclination: 098.1566 deg
RA of node: 171.2323 deg
Eccentricity: 0.0009298
Arg of perigee: 168.6261 deg
Mean anomaly: 191.5156 deg
Mean motion: 14.79642575 rev/day
Decay rate: 2.95e-06 rev/day^2
Epoch rev: 29919
Checksum: 343
Satellite: RS-15
Catalog number: 23439
Epoch time: 08137.61689597
Element set: 0164
Inclination: 064.8163 deg
RA of node: 186.0981 deg
Eccentricity: 0.0148135
Arg of perigee: 128.8179 deg
Mean anomaly: 232.6075 deg
Mean motion: 11.27551867 rev/day
Decay rate: -3.9e-07 rev/day^2
Epoch rev: 55140
Checksum: 334
Satellite: FO-29
Catalog number: 24278
Epoch time: 08137.76528525
Element set: 0781
Inclination: 098.5886 deg
RA of node: 058.1608 deg
Eccentricity: 0.0349980
Arg of perigee: 297.0059 deg
Mean anomaly: 059.5748 deg
Mean motion: 13.52937476 rev/day
Decay rate: -2.9e-07 rev/day^2
Epoch rev: 58014
Checksum: 372
Satellite: SO-33
Catalog number: 25509
Epoch time: 08137.38713627
Element set: 0199
Inclination: 031.4274 deg
RA of node: 136.1549 deg
Eccentricity: 0.0354608
Arg of perigee: 109.2423 deg
Mean anomaly: 254.6887 deg
Mean motion: 14.28214084 rev/day
Decay rate: 1.9e-07 rev/day^2
Epoch rev: 49906
Checksum: 322
Satellite: AO-40
Catalog number: 26609
Epoch time: 08136.96347695
Element set: 0056
Inclination: 007.5565 deg
RA of node: 082.6655 deg
Eccentricity: 0.7912497
Arg of perigee: 081.6042 deg
Mean anomaly: 351.8066 deg
Mean motion: 01.25583857 rev/day
Decay rate: -6.2e-07 rev/day^2
Epoch rev: 03463
Checksum: 334
Satellite: VO-52
Catalog number: 28650
Epoch time: 08137.86416089
Element set: 0932
Inclination: 097.7907 deg
RA of node: 205.3317 deg
Eccentricity: 0.0026150
Arg of perigee: 241.5477 deg
Mean anomaly: 118.3082 deg
Mean motion: 14.81460300 rev/day
Decay rate: -2.22e-06 rev/day^2
Epoch rev: 16396
Checksum: 299
Satellite: PO-63
Catalog number: 29712
Epoch time: 08138.26280980
Element set: 451
Inclination: 097.8758 deg
RA of node: 197.0274 deg
Eccentricity: 0.0015208
Arg of perigee: 118.9009 deg
Mean anomaly: 241.3729 deg
Mean motion: 14.80148259 rev/day
Decay rate: 5.38e-06 rev/day^2
Epoch rev: 7289
Checksum: 335
/EX
SB KEPS @ AMSAT $ORB08138.D
Orbital Elements 08138.MICROS
HR AMSAT ORBITAL ELEMENTS FOR THE MICROSATS
FROM WA5QGD FORT WORTH,TX May 17, 2008
Send Subscribe/unsubscribe to KEPS at
http://www.amsat.org/mailman/listinfo/keps
BID: ORB08138.D
TO ALL RADIO AMATEURS BT
Satellite: AO-16
Catalog number: 20439
Epoch time: 08138.53203429
Element set: 322
Inclination: 098.2274 deg
RA of node: 120.1650 deg
Eccentricity: 0.0009984
Arg of perigee: 269.8907 deg
Mean anomaly: 090.1140 deg
Mean motion: 14.31793519 rev/day
Decay rate: 9.0e-08 rev/day^2
Epoch rev: 95653
Checksum: 305
Satellite: LO-19
Catalog number: 20442
Epoch time: 08137.60622913
Element set: 0249
Inclination: 098.1988 deg
RA of node: 127.9190 deg
Eccentricity: 0.0010963
Arg of perigee: 270.3511 deg
Mean anomaly: 089.6412 deg
Mean motion: 14.32032032 rev/day
Decay rate: 5.7e-07 rev/day^2
Epoch rev: 95655
Checksum: 298
Satellite: AO-27
Catalog number: 22825
Epoch time: 08137.62736700
Element set: 0970
Inclination: 098.3819 deg
RA of node: 098.8364 deg
Eccentricity: 0.0008469
Arg of perigee: 000.9443 deg
Mean anomaly: 359.1757 deg
Mean motion: 14.29239020 rev/day
Decay rate: 3.8e-07 rev/day^2
Epoch rev: 76326
Checksum: 332
Satellite: IO-26
Catalog number: 22826
Epoch time: 08137.68689565
Element set: 0676
Inclination: 098.3742 deg
RA of node: 099.8179 deg
Eccentricity: 0.0009278
Arg of perigee: 356.8210 deg
Mean anomaly: 003.2913 deg
Mean motion: 14.29487525 rev/day
Decay rate: 2.1e-07 rev/day^2
Epoch rev: 76336
Checksum: 350
Satellite: PO-28
Catalog number: 22829
Epoch time: 08137.47894491
Element set: 0946
Inclination: 098.3619 deg
RA of node: 100.7280 deg
Eccentricity: 0.0009367
Arg of perigee: 328.8841 deg
Mean anomaly: 031.1780 deg
Mean motion: 14.30189106 rev/day
Decay rate: 5.1e-07 rev/day^2
Epoch rev: 76359
Checksum: 330
Satellite: GO-32
Catalog number: 25397
Epoch time: 08137.75359080
Element set: 0602
Inclination: 098.3660 deg
RA of node: 174.4653 deg
Eccentricity: 0.0001115
Arg of perigee: 022.0942 deg
Mean anomaly: 338.0279 deg
Mean motion: 14.23143009 rev/day
Decay rate: -4.3e-07 rev/day^2
Epoch rev: 51174
Checksum: 280
Satellite: MO-46
Catalog number: 26548
Epoch time: 08137.68087697
Element set: 0100
Inclination: 064.5575 deg
RA of node: 227.7634 deg
Eccentricity: 0.0026482
Arg of perigee: 328.5131 deg
Mean anomaly: 031.4391 deg
Mean motion: 14.83259576 rev/day
Decay rate: -2.8e-07 rev/day^2
Epoch rev: 41314
Checksum: 320
Satellite: NO-44
Catalog number: 26931
Epoch time: 08138.64137408
Element set: 880
Inclination: 067.0543 deg
RA of node: 003.3473 deg
Eccentricity: 0.0006324
Arg of perigee: 278.5961 deg
Mean anomaly: 081.4448 deg
Mean motion: 14.29522591 rev/day
Decay rate: 4.3e-07 rev/day^2
Epoch rev: 34604
Checksum: 300
Satellite: SO-50
Catalog number: 27607
Epoch time: 08138.48881343
Element set: 604
Inclination: 064.5560 deg
RA of node: 146.8696 deg
Eccentricity: 0.0084880
Arg of perigee: 285.3462 deg
Mean anomaly: 073.8265 deg
Mean motion: 14.71354839 rev/day
Decay rate: 6.9e-07 rev/day^2
Epoch rev: 29045
Checksum: 342
Satellite: CO-55
Catalog number: 27844
Epoch time: 08137.53040346
Element set: 0307
Inclination: 098.7153 deg
RA of node: 146.2377 deg
Eccentricity: 0.0009265
Arg of perigee: 203.5960 deg
Mean anomaly: 156.4786 deg
Mean motion: 14.20578827 rev/day
Decay rate: 3.1e-07 rev/day^2
Epoch rev: 25294
Checksum: 317
Satellite: CO-57
Catalog number: 27848
Epoch time: 08138.58087856
Element set: 258
Inclination: 098.7156 deg
RA of node: 146.3751 deg
Eccentricity: 0.0009061
Arg of perigee: 205.9124 deg
Mean anomaly: 154.1597 deg
Mean motion: 14.20387611 rev/day
Decay rate: 4.0e-08 rev/day^2
Epoch rev: 25306
Checksum: 322
Satellite: AO-51
Catalog number: 28375
Epoch time: 08137.79350092
Element set: 0101
Inclination: 098.0734 deg
RA of node: 164.1271 deg
Eccentricity: 0.0083002
Arg of perigee: 248.4368 deg
Mean anomaly: 110.7965 deg
Mean motion: 14.40607268 rev/day
Decay rate: 1.5e-07 rev/day^2
Epoch rev: 20388
Checksum: 293
Satellite: CO-56
Catalog number: 28941
Epoch time: 08138.72740753
Element set: 63
Inclination: 098.1059 deg
RA of node: 245.2952 deg
Eccentricity: 0.0172322
Arg of perigee: 151.7410 deg
Mean anomaly: 209.3362 deg
Mean motion: 15.55455645 rev/day
Decay rate: 3.5251e-04 rev/day^2
Epoch rev: 12530
Checksum: 301
Satellite: CP4
Catalog number: 31122
Epoch time: 08137.87502889
Element set: 338
Inclination: 098.0440 deg
RA of node: 204.6262 deg
Eccentricity: 0.0087019
Arg of perigee: 066.9494 deg
Mean anomaly: 294.0756 deg
Mean motion: 14.55124562 rev/day
Decay rate: 5.53e-06 rev/day^2
Epoch rev: 5752
Checksum: 312
Satellite: CP3
Catalog number: 31128
Epoch time: 08137.63508669
Element set: 0334
Inclination: 098.0415 deg
RA of node: 202.4058 deg
Eccentricity: 0.0104098
Arg of perigee: 072.7305 deg
Mean anomaly: 288.5253 deg
Mean motion: 14.51944866 rev/day
Decay rate: -4.6e-07 rev/day^2
Epoch rev: 05735
Checksum: 306
Satellite: LIBERT
Catalog number: 31129
Epoch time: 08138.16248882
Element set: 970
Inclination: 098.0402 deg
RA of node: 202.9486 deg
Eccentricity: 0.0103714
Arg of perigee: 070.9141 deg
Mean anomaly: 290.3226 deg
Mean motion: 14.52035632 rev/day
Decay rate: 3.40e-06 rev/day^2
Epoch rev: 5741
Checksum: 271
/EX
SB KEPS @ AMSAT $ORB08138.W
Orbital Elements 08138.WEATHER
HR AMSAT ORBITAL ELEMENTS FOR WEATHER SATELLITES
FROM WA5QGD FORT WORTH,TX May 17, 2008
Send Subscribe/unsubscribe to KEPS at
http://www.amsat.org/mailman/listinfo/keps
BID: ORB08138.W
TO ALL RADIO AMATEURS BT
Satellite: NOAA-10
Catalog number: 16969
Epoch time: 08137.60998752
Element set: 0123
Inclination: 098.7240 deg
RA of node: 159.6423 deg
Eccentricity: 0.0011252
Arg of perigee: 273.6728 deg
Mean anomaly: 086.3170 deg
Mean motion: 14.27358395 rev/day
Decay rate: -1.42e-06 rev/day^2
Epoch rev: 12693
Checksum: 320
Satellite: NOAA-11
Catalog number: 19531
Epoch time: 08137.83985667
Element set: 0164
Inclination: 098.7959 deg
RA of node: 227.6015 deg
Eccentricity: 0.0011786
Arg of perigee: 153.9555 deg
Mean anomaly: 206.2203 deg
Mean motion: 14.14870455 rev/day
Decay rate: -1.97e-06 rev/day^2
Epoch rev: 01347
Checksum: 326
Satellite: NOAA-12
Catalog number: 21263
Epoch time: 08137.89767908
Element set: 0673
Inclination: 098.7658 deg
RA of node: 139.8537 deg
Eccentricity: 0.0011822
Arg of perigee: 212.7827 deg
Mean anomaly: 147.2626 deg
Mean motion: 14.25532175 rev/day
Decay rate: 1.52e-06 rev/day^2
Epoch rev: 88393
Checksum: 340
Satellite: MET-3/5
Catalog number: 21655
Epoch time: 08137.96981906
Element set: 0441
Inclination: 082.5523 deg
RA of node: 126.4398 deg
Eccentricity: 0.0015009
Arg of perigee: 090.3836 deg
Mean anomaly: 269.9006 deg
Mean motion: 13.17015249 rev/day
Decay rate: 5.1e-07 rev/day^2
Epoch rev: 80547
Checksum: 311
